Time,TemperatureF,DewpointF,PressureIn,WindDirection,WindDirectionDegrees,WindSpeedMPH,WindSpeedGustMPH,Humidity,HourlyPrecipIn,Conditions,Clouds,dailyrainin,SoftwareType,DateUTC
2013-01-12 00:05:00,41.0,39.7,30.05,NNE,22,0.0,0.0,95,0.00,,,-99.99,Weather View 32 v70,2013-01-12 08:05:00,
2013-01-12 00:20:00,41.0,38.9,30.05,NW,315,0.0,0.0,92,0.00,,,-99.99,Weather View 32 v70,2013-01-12 08:20:00,
2013-01-12 00:32:00,41.0,38.9,30.05,NW,315,0.0,0.0,92,0.00,,,-99.99,Weather View 32 v70,2013-01-12 08:32:00,
2013-01-12 00:35:00,41.0,38.9,30.04,NNE,22,0.0,0.0,92,0.00,,,-99.99,Weather View 32 v70,2013-01-12 08:35:00,
2013-01-12 00:50:00,40.0,37.6,30.04,ENE,68,0.0,0.0,91,0.00,,,-99.99,Weather View 32 v70,2013-01-12 08:50:00,
2013-01-12 01:05:00,40.0,37.6,30.04,NE,45,0.0,0.0,91,0.00,,,-99.99,Weather View 32 v70,2013-01-12 09:05:00,
2013-01-12 01:20:00,39.0,36.9,30.04,NE,45,0.0,0.0,92,0.00,,,-99.99,Weather View 32 v70,2013-01-12 09:20:00,
2013-01-12 01:32:00,39.0,36.9,30.04,NE,45,0.0,0.0,92,0.00,,,-99.99,Weather View 32 v70,2013-01-12 09:32:00,
2013-01-12 01:35:00,38.0,36.2,30.04,East,90,0.0,0.0,93,0.00,,,-99.99,Weather View 32 v70,2013-01-12 09:35:00,
2013-01-12 01:50:00,39.0,37.7,30.04,NE,45,0.0,0.0,95,0.00,,,-99.99,Weather View 32 v70,2013-01-12 09:50:00,
2013-01-12 02:05:00,39.0,37.7,30.04,NE,45,0.0,0.0,95,0.00,,,-99.99,Weather View 32 v70,2013-01-12 10:05:00,
2013-01-12 02:20:00,38.0,36.7,30.04,ESE,112,0.0,0.0,95,0.00,,,-99.99,Weather View 32 v70,2013-01-12 10:20:00,
2013-01-12 02:33:00,38.0,36.7,30.04,ESE,112,0.0,0.0,95,0.00,,,-99.99,Weather View 32 v70,2013-01-12 10:33:00,
2013-01-12 02:35:00,38.0,36.7,30.04,NNW,338,0.0,0.0,95,0.00,,,-99.99,Weather View 32 v70,2013-01-12 10:35:00,
2013-01-12 02:50:00,39.0,37.4,30.04,NNE,22,0.0,0.0,94,0.00,,,-99.99,Weather View 32 v70,2013-01-12 10:50:00,
2013-01-12 03:05:00,39.0,36.3,30.04,NW,315,0.0,0.0,90,0.00,,,-99.99,Weather View 32 v70,2013-01-12 11:05:00,
2013-01-12 03:20:00,41.0,37.1,30.04,NNE,22,0.0,0.0,86,0.00,,,-99.99,Weather View 32 v70,2013-01-12 11:20:00,
2013-01-12 03:33:00,41.0,37.1,30.04,NNE,22,0.0,0.0,86,0.00,,,-99.99,Weather View 32 v70,2013-01-12 11:33:00,
2013-01-12 03:35:00,40.0,35.9,30.04,NNE,22,0.0,0.0,85,0.00,,,-99.99,Weather View 32 v70,2013-01-12 11:35:00,
2013-01-12 03:50:00,42.0,38.1,30.04,North,0,0.0,0.0,86,0.00,,,-99.99,Weather View 32 v70,2013-01-12 11:50:00,
2013-01-12 04:05:00,41.0,37.1,30.04,NNE,22,0.0,1.0,86,0.00,,,-99.99,Weather View 32 v70,2013-01-12 12:05:00,
2013-01-12 04:20:00,41.0,37.1,30.04,NNE,22,0.0,1.0,86,0.00,,,-99.99,Weather View 32 v70,2013-01-12 12:20:00,
2013-01-12 04:34:00,41.0,37.1,30.04,NNE,22,0.0,1.0,86,0.00,,,-99.99,Weather View 32 v70,2013-01-12 12:34:00,
2013-01-12 04:50:00,40.0,36.4,30.03,NNE,22,0.0,1.0,87,0.00,,,-99.99,Weather View 32 v70,2013-01-12 12:50:00,
2013-01-12 05:05:00,41.0,37.7,30.03,NNE,22,0.0,1.0,88,0.00,,,-99.99,Weather View 32 v70,2013-01-12 13:05:00,
2013-01-12 05:20:00,41.0,36.8,30.03,NNE,22,0.0,0.0,85,0.00,,,-99.99,Weather View 32 v70,2013-01-12 13:20:00,
2013-01-12 05:35:00,41.0,36.8,30.03,NNE,22,0.0,0.0,85,0.00,,,-99.99,Weather View 32 v70,2013-01-12 13:35:00,
2013-01-12 05:50:00,40.0,36.4,30.04,NE,45,0.0,0.0,87,0.00,,,-99.99,Weather View 32 v70,2013-01-12 13:50:00,
2013-01-12 06:05:00,39.0,35.5,30.05,ESE,112,0.0,0.0,87,0.00,,,-99.99,Weather View 32 v70,2013-01-12 14:05:00,
2013-01-12 06:20:00,38.0,34.5,30.05,ENE,68,0.0,0.0,87,0.00,,,-99.99,Weather View 32 v70,2013-01-12 14:20:00,
2013-01-12 06:35:00,37.0,34.6,30.05,North,0,0.0,0.0,91,0.00,,,-99.99,Weather View 32 v70,2013-01-12 14:35:00,
2013-01-12 06:50:00,37.0,34.6,30.05,ENE,68,0.0,0.0,91,0.00,,,-99.99,Weather View 32 v70,2013-01-12 14:50:00,
2013-01-12 07:05:00,37.0,34.9,30.06,NE,45,0.0,0.0,92,0.00,,,-99.99,Weather View 32 v70,2013-01-12 15:05:00,
2013-01-12 07:20:00,35.0,32.9,30.06,NNE,22,0.0,0.0,92,0.00,,,-99.99,Weather View 32 v70,2013-01-12 15:20:00,
2013-01-12 07:35:00,35.0,33.4,30.07,East,90,0.0,0.0,94,0.00,,,-99.99,Weather View 32 v70,2013-01-12 15:35:00,
2013-01-12 07:50:00,34.0,32.7,30.07,North,0,0.0,0.0,95,0.00,,,-99.99,Weather View 32 v70,2013-01-12 15:50:00,
2013-01-12 08:05:00,35.0,34.0,30.07,North,0,0.0,0.0,96,0.00,,,-99.99,Weather View 32 v70,2013-01-12 16:05:00,
2013-01-12 08:20:00,36.0,35.0,30.07,East,90,0.0,0.0,96,0.00,,,-99.99,Weather View 32 v70,2013-01-12 16:20:00,
2013-01-12 08:35:00,36.0,34.7,30.07,East,90,0.0,0.0,95,0.00,,,-99.99,Weather View 32 v70,2013-01-12 16:35:00,
2013-01-12 08:36:00,36.0,34.7,30.07,East,90,0.0,0.0,95,0.00,,,-99.99,Weather View 32 v70,2013-01-12 16:36:00,
2013-01-12 08:50:00,37.0,35.7,30.08,East,90,0.0,0.0,95,0.00,,,-99.99,Weather View 32 v70,2013-01-12 16:50:00,
2013-01-12 09:05:00,38.0,36.4,30.08,ENE,68,0.0,0.0,94,0.00,,,-99.99,Weather View 32 v70,2013-01-12 17:05:00,
2013-01-12 09:20:00,40.0,37.6,30.08,North,0,0.0,0.0,91,0.00,,,-99.99,Weather View 32 v70,2013-01-12 17:20:00,
2013-01-12 09:35:00,41.0,36.8,30.08,NW,315,0.0,0.0,85,0.00,,,-99.99,Weather View 32 v70,2013-01-12 17:35:00,
2013-01-12 09:37:00,41.0,36.8,30.08,NW,315,0.0,0.0,85,0.00,,,-99.99,Weather View 32 v70,2013-01-12 17:37:00,
2013-01-12 09:50:00,42.0,37.8,30.08,North,0,0.0,0.0,85,0.00,,,-99.99,Weather View 32 v70,2013-01-12 17:50:00,
2013-01-12 10:05:00,43.0,39.1,30.09,NNW,338,0.0,0.0,86,0.00,,,-99.99,Weather View 32 v70,2013-01-12 18:05:00,
2013-01-12 10:20:00,45.0,39.2,30.09,NNE,22,0.0,0.0,80,0.00,,,-99.99,Weather View 32 v70,2013-01-12 18:20:00,
2013-01-12 10:35:00,46.0,37.5,30.09,North,0,0.0,0.0,72,0.00,,,-99.99,Weather View 32 v70,2013-01-12 18:35:00,
2013-01-12 10:37:00,46.0,37.5,30.09,North,0,0.0,0.0,72,0.00,,,-99.99,Weather View 32 v70,2013-01-12 18:37:00,
2013-01-12 10:50:00,46.0,37.1,30.09,NNW,338,0.0,0.0,71,0.00,,,-99.99,Weather View 32 v70,2013-01-12 18:50:00,
2013-01-12 11:05:00,48.0,37.2,30.10,North,0,0.0,0.0,66,0.00,,,-99.99,Weather View 32 v70,2013-01-12 19:05:00,
2013-01-12 11:20:00,48.0,36.0,30.10,NNE,22,0.0,0.0,63,0.00,,,-99.99,Weather View 32 v70,2013-01-12 19:20:00,
2013-01-12 11:35:00,50.0,35.8,30.09,NNE,22,0.0,0.0,58,0.00,,,-99.99,Weather View 32 v70,2013-01-12 19:35:00,
2013-01-12 11:38:00,50.0,35.8,30.09,NNE,22,0.0,0.0,58,0.00,,,-99.99,Weather View 32 v70,2013-01-12 19:38:00,
2013-01-12 11:50:00,49.0,34.0,30.09,NNE,22,0.0,0.0,56,0.00,,,-99.99,Weather View 32 v70,2013-01-12 19:50:00,
2013-01-12 12:05:00,50.0,32.1,30.09,NNE,22,0.0,0.0,50,0.00,,,-99.99,Weather View 32 v70,2013-01-12 20:05:00,
2013-01-12 12:20:00,51.0,31.4,30.09,North,0,0.0,0.0,47,0.00,,,-99.99,Weather View 32 v70,2013-01-12 20:20:00,
2013-01-12 12:35:00,51.0,29.8,30.08,NNE,22,0.0,0.0,44,0.00,,,-99.99,Weather View 32 v70,2013-01-12 20:35:00,
2013-01-12 12:50:00,51.0,29.2,30.08,NNE,22,0.0,0.0,43,0.00,,,-99.99,Weather View 32 v70,2013-01-12 20:50:00,
2013-01-12 13:05:00,52.0,29.0,30.08,NNE,22,0.0,0.0,41,0.00,,,-99.99,Weather View 32 v70,2013-01-12 21:05:00,
2013-01-12 13:20:00,52.0,27.8,30.08,North,0,0.0,0.0,39,0.00,,,-99.99,Weather View 32 v70,2013-01-12 21:20:00,
2013-01-12 13:35:00,52.0,26.5,30.08,NNE,22,0.0,1.0,37,0.00,,,-99.99,Weather View 32 v70,2013-01-12 21:35:00,
2013-01-12 13:39:00,52.0,26.5,30.08,NNE,22,0.0,1.0,37,0.00,,,-99.99,Weather View 32 v70,2013-01-12 21:39:00,
2013-01-12 13:50:00,52.0,27.8,30.09,North,0,0.0,1.0,39,0.00,,,-99.99,Weather View 32 v70,2013-01-12 21:50:00,
2013-01-12 14:05:00,53.0,28.0,30.09,North,0,0.0,1.0,38,0.00,,,-99.99,Weather View 32 v70,2013-01-12 22:05:00,
2013-01-12 14:20:00,52.0,27.1,30.09,NNE,22,0.0,1.0,38,0.00,,,-99.99,Weather View 32 v70,2013-01-12 22:20:00,
2013-01-12 14:35:00,52.0,26.5,30.10,NNW,338,0.0,1.0,37,0.00,,,-99.99,Weather View 32 v70,2013-01-12 22:35:00,
2013-01-12 14:40:00,52.0,26.5,30.10,NNW,338,0.0,1.0,37,0.00,,,-99.99,Weather View 32 v70,2013-01-12 22:40:00,
2013-01-12 14:50:00,52.0,26.5,30.10,NNE,22,0.0,1.0,37,0.00,,,-99.99,Weather View 32 v70,2013-01-12 22:50:00,
2013-01-12 15:05:00,52.0,26.5,30.11,North,0,0.0,1.0,37,0.00,,,-99.99,Weather View 32 v70,2013-01-12 23:05:00,
2013-01-12 15:20:00,52.0,26.5,30.11,North,0,0.0,1.0,37,0.00,,,-99.99,Weather View 32 v70,2013-01-12 23:20:00,
2013-01-12 15:35:00,51.0,24.9,30.12,North,0,0.0,1.0,36,0.00,,,-99.99,Weather View 32 v70,2013-01-12 23:35:00,
2013-01-12 15:40:00,51.0,24.9,30.12,North,0,0.0,1.0,36,0.00,,,-99.99,Weather View 32 v70,2013-01-12 23:40:00,
2013-01-12 15:50:00,51.0,24.9,30.12,North,0,0.0,1.0,36,0.00,,,-99.99,Weather View 32 v70,2013-01-12 23:50:00,
2013-01-12 16:05:00,50.0,24.7,30.11,North,0,0.0,0.0,37,0.00,,,-99.99,Weather View 32 v70,2013-01-13 00:05:00,
2013-01-12 16:20:00,50.0,26.6,30.11,North,0,0.0,0.0,40,0.00,,,-99.99,Weather View 32 v70,2013-01-13 00:20:00,
2013-01-12 16:35:00,49.0,26.9,30.11,North,0,0.0,0.0,42,0.00,,,-99.99,Weather View 32 v70,2013-01-13 00:35:00,
2013-01-12 16:41:00,49.0,26.9,30.11,North,0,0.0,0.0,42,0.00,,,-99.99,Weather View 32 v70,2013-01-13 00:41:00,
2013-01-12 16:50:00,49.0,26.3,30.11,NNE,22,0.0,0.0,41,0.00,,,-99.99,Weather View 32 v70,2013-01-13 00:50:00,
2013-01-12 17:05:00,49.0,25.7,30.11,North,0,0.0,0.0,40,0.00,,,-99.99,Weather View 32 v70,2013-01-13 01:05:00,
2013-01-12 17:20:00,49.0,26.3,30.11,NE,45,0.0,0.0,41,0.00,,,-99.99,Weather View 32 v70,2013-01-13 01:20:00,
2013-01-12 17:35:00,46.0,31.6,30.11,ESE,112,0.0,0.0,57,0.00,,,-99.99,Weather View 32 v70,2013-01-13 01:35:00,
2013-01-12 17:41:00,46.0,31.6,30.11,ESE,112,0.0,0.0,57,0.00,,,-99.99,Weather View 32 v70,2013-01-13 01:41:00,
2013-01-12 17:50:00,45.0,31.9,30.11,NE,45,0.0,0.0,60,0.00,,,-99.99,Weather View 32 v70,2013-01-13 01:50:00,
2013-01-12 18:05:00,46.0,32.9,30.11,NNE,22,0.0,0.0,60,0.00,,,-99.99,Weather View 32 v70,2013-01-13 02:05:00,
2013-01-12 18:20:00,46.0,33.7,30.10,ESE,112,0.0,0.0,62,0.00,,,-99.99,Weather View 32 v70,2013-01-13 02:20:00,
2013-01-12 18:35:00,49.0,33.5,30.09,NNE,22,0.0,0.0,55,0.00,,,-99.99,Weather View 32 v70,2013-01-13 02:35:00,
2013-01-12 18:42:00,49.0,33.5,30.09,NNE,22,0.0,0.0,55,0.00,,,-99.99,Weather View 32 v70,2013-01-13 02:42:00,
2013-01-12 18:50:00,44.0,33.4,30.10,NNE,22,0.0,0.0,66,0.00,,,-99.99,Weather View 32 v70,2013-01-13 02:50:00,
2013-01-12 19:05:00,45.0,33.9,30.10,NW,315,0.0,0.0,65,0.00,,,-99.99,Weather View 32 v70,2013-01-13 03:05:00,
2013-01-12 19:20:00,45.0,33.1,30.10,NW,315,0.0,0.0,63,0.00,,,-99.99,Weather View 32 v70,2013-01-13 03:20:00,
2013-01-12 19:35:00,46.0,32.0,30.09,East,90,0.0,0.0,58,0.00,,,-99.99,Weather View 32 v70,2013-01-13 03:35:00,
2013-01-12 19:42:00,46.0,32.0,30.09,East,90,0.0,0.0,58,0.00,,,-99.99,Weather View 32 v70,2013-01-13 03:42:00,
2013-01-12 19:50:00,46.0,32.5,30.09,ENE,68,0.0,0.0,59,0.00,,,-99.99,Weather View 32 v70,2013-01-13 03:50:00,
2013-01-12 20:05:00,46.0,34.1,30.09,North,0,0.0,0.0,63,0.00,,,-99.99,Weather View 32 v70,2013-01-13 04:05:00,
2013-01-12 20:20:00,45.0,34.3,30.09,North,0,0.0,0.0,66,0.00,,,-99.99,Weather View 32 v70,2013-01-13 04:20:00,
2013-01-12 20:35:00,43.0,33.5,30.09,NNE,22,0.0,0.0,69,0.00,,,-99.99,Weather View 32 v70,2013-01-13 04:35:00,
2013-01-12 20:43:00,43.0,33.5,30.09,NNE,22,0.0,0.0,69,0.00,,,-99.99,Weather View 32 v70,2013-01-13 04:43:00,
2013-01-12 20:50:00,41.0,33.3,30.09,NNE,22,0.0,0.0,74,0.00,,,-99.99,Weather View 32 v70,2013-01-13 04:50:00,
2013-01-12 21:05:00,40.0,33.4,30.09,NNW,338,0.0,0.0,77,0.00,,,-99.99,Weather View 32 v70,2013-01-13 05:05:00,
2013-01-12 21:20:00,40.0,33.4,30.08,North,0,0.0,0.0,77,0.00,,,-99.99,Weather View 32 v70,2013-01-13 05:20:00,
2013-01-12 21:35:00,40.0,33.0,30.08,East,90,0.0,0.0,76,0.00,,,-99.99,Weather View 32 v70,2013-01-13 05:35:00,
2013-01-12 21:44:00,40.0,33.0,30.08,East,90,0.0,0.0,76,0.00,,,-99.99,Weather View 32 v70,2013-01-13 05:44:00,
2013-01-12 21:50:00,39.0,32.1,30.09,East,90,0.0,0.0,76,0.00,,,-99.99,Weather View 32 v70,2013-01-13 05:50:00,
2013-01-12 22:05:00,39.0,32.4,30.09,ESE,112,0.0,0.0,77,0.00,,,-99.99,Weather View 32 v70,2013-01-13 06:05:00,
2013-01-12 22:20:00,38.0,31.4,30.09,NNE,22,0.0,0.0,77,0.00,,,-99.99,Weather View 32 v70,2013-01-13 06:20:00,
2013-01-12 22:35:00,38.0,31.4,30.09,NNE,22,0.0,0.0,77,0.00,,,-99.99,Weather View 32 v70,2013-01-13 06:35:00,
2013-01-12 22:44:00,38.0,31.4,30.09,NNE,22,0.0,0.0,77,0.00,,,-99.99,Weather View 32 v70,2013-01-13 06:44:00,
2013-01-12 22:50:00,38.0,31.7,30.09,East,90,0.0,0.0,78,0.00,,,-99.99,Weather View 32 v70,2013-01-13 06:50:00,
2013-01-12 23:05:00,37.0,31.1,30.09,ESE,112,0.0,0.0,79,0.00,,,-99.99,Weather View 32 v70,2013-01-13 07:05:00,
2013-01-12 23:20:00,36.0,31.0,30.09,ENE,68,0.0,0.0,82,0.00,,,-99.99,Weather View 32 v70,2013-01-13 07:20:00,
2013-01-12 23:35:00,35.0,30.1,30.09,NNE,22,0.0,0.0,82,0.00,,,-99.99,Weather View 32 v70,2013-01-13 07:35:00,
2013-01-12 23:45:00,35.0,30.1,30.09,NNE,22,0.0,0.0,82,0.00,,,-99.99,Weather View 32 v70,2013-01-13 07:45:00,
2013-01-12 23:50:00,35.0,30.9,30.09,NE,45,0.0,0.0,85,0.00,,,-99.99,Weather View 32 v70,2013-01-13 07:50:00,